Regional Weather Roundup
Issued by NWS

Home | Current Version | Previous Version | Text Only | Print | Product List | Glossary On
Versions: 1 2 3 4 5 6 7 8 9 10 11 12 13 14 15 16 17 18 19 20 21 22 23 24 25 26 27 28 29 30 31 32 33 34 35 36 37 38 39 40 41 42 43 44 45 46 47 48 49 50
000
ASCA42 TJSJ 302011
RWRPR
PUERTO RICO/U.S. VIRGIN ISLANDS HOURLY WEATHER ROUNDUP
NATIONAL WEATHER SERVICE SAN JUAN PR
400 PM AST FRI JAN 30 2015

PRZ001-004-302100-
PUERTO RICO

CITY           SKY/WX    TMP DP  RH WIND       PRES   REMARKS
SAN JUAN LMM   MOSUNNY   81  72  74 E13       29.95F
PONCE          RAIN      81  73  78 NE7       29.93
AGUADILLA      MOSUNNY   81  70  69 E14       29.97F
CEIBA          SUNNY     82  70  65 NE8       29.98F
$$

PRZ006-007-302100-
U.S. VIRGIN ISLANDS

CITY           SKY/WX    TMP DP  RH WIND       PRES   REMARKS
CHARLOTTE AMA  PTSUNNY   81  70  69 NE9       29.95
CHRISTIANSTED  LGT RAIN  79  72  78 E6        29.96
$$

HOURLY WEATHER ROUNDUP FOR THE NEWS MEDIA

CITY           SKY/WX    TMP DP  RH WIND       PRES   REMARKS
MIAMI          PTSUNNY   74  47  38 W8        30.13F
ORLANDO        MOSUNNY   71  55  56 NW15G21   30.13S
NEW YORK       PTSUNNY   37  19  48 NW26G33   29.83R WCI  25
NEWARK         MOSUNNY   38  19  46 NW17G28   29.84R WCI  28
CHICAGO        PTSUNNY   28   8  43 NW5       30.47F WCI  23
HARTFORD       CLOUDY    34  31  88 NW5       29.69F WCI  30
BOSTON         CLOUDY    33  28  81 NW9       29.72S WCI  25
DALLAS         PTSUNNY   56  29  35 E7        30.39F
PHILADELPHIA   PTSUNNY   40  16  37 NW21G33   29.93R WCI  30



USA.gov is the U.S. government's official web portal to all federal, state and local government web resources and services.